[Iaude] MPEC D12: 2024 CR7 [a=1.99,e=0.62,i=16.3,H=20.3]

mpec at cfa.harvard.edu mpec at cfa.harvard.edu
Fri Feb 16 12:27:57 EST 2024


M.P.E.C. 2024-D12                             Issued 2024 February 16, 17:26 UT

     The Minor Planet Electronic Circulars contain information on unusual
         minor planets, routine data on comets and natural satellites,
         and occasional editorial announcements.  They are published
    on behalf of Division F of the International Astronomical Union by the
          Minor Planet Center, Smithsonian Astrophysical Observatory,
                          Cambridge, MA 02138, U.S.A.
			  
             Prepared using the Tamkin Foundation Computer Network

                              MPC at CFA.HARVARD.EDU
            URL https://www.minorplanetcenter.net/    ISSN 1523-6714

                                    2024 CR7                                    


Observations:
     K24C07R  C2024 01 21.46136411 12 33.169+22 29 31.17         23.56GVED012F51
     K24C07R  C2024 01 21.48713011 12 33.324+22 29 59.18         22.58GVED012F51
     K24C07R  C2024 01 21.49997611 12 33.428+22 30 12.82         22.52GVED012F51
     K24C07R  C2024 02 07.46288511 09 16.612+28 58 51.71         21.44GVED012F52
     K24C07R  C2024 02 07.47455611 09 16.137+28 59 11.26         21.80GVED012F52
     K24C07R  C2024 02 07.48625211 09 15.660+28 59 30.80         21.56GVED012F52
     K24C07R  C2024 02 11.59066411 06 15.398+30 57 58.04         21.84wXED012F52
     K24C07R* C2024 02 11.59195711 06 15.327+30 58 00.52         22.01wXED012F52
     K24C07R  C2024 02 11.60371611 06 14.670+30 58 21.37         21.79wXED012F52
     K24C07R  C2024 02 11.60500911 06 14.601+30 58 23.69         21.77wXED012F52
     K24C07R  C2024 02 11.61677711 06 13.956+30 58 44.49         21.91wXED012F52
     K24C07R  C2024 02 11.61806911 06 13.885+30 58 46.75         22.11wXED012F52
     K24C07R  C2024 02 11.62984411 06 13.251+30 59 07.50         22.01wXED012F52
     K24C07R  C2024 02 11.63113511 06 13.176+30 59 09.82         21.37wXED012F52
     K24C07R $C2024 02 14.21483511 03 48.413+32 17 53.92               VED012J04
     K24C07R $C2024 02 14.23422211 03 47.159+32 18 29.44               VED012J04
     K24C07R $C2024 02 14.25291511 03 45.949+32 19 03.93               VED012J04

Observer details:
F51 Pan-STARRS 1, Haleakala.  Observers J. Herman, T. Lowe, P. Minguez, A.
    Schultz, I. Smith.  Measurers K. Chambers, T. de Boer, J. Fairlamb, H.
    Gao, M. Huber, C.-C. Lin, E. Magnier, Y. Ramanjooloo, R. Wainscoat, R.
    Weryk.  1.8-m Ritchey-Chretien + CCD.
F52 Pan-STARRS 2, Haleakala.  Observers J. Herman, T. Lowe, P. Minguez, A.
    Schultz, I. Smith.  Measurers K. Chambers, T. de Boer, J. Fairlamb, H.
    Gao, M. Huber, C.-C. Lin, E. Magnier, Y. Ramanjooloo, R. Wainscoat, R.
    Weryk.  1.8-m Ritchey-Chretien + CCD.
J04 ESA Optical Ground Station, Tenerife.  Observers D. Abreu, F. Ocana, M.
    Micheli, L. Conversi.  Measurers F. Ocana, M. Micheli, R. Kresken.
    0.8-m f/3 Schmidt + CCD.

Orbital elements:
2024 CR7                                                 Earth MOID = 0.1884 AU
Epoch 2024 Mar. 31.0 TT = JDT 2460400.5                 MPC                     
M 333.50064              (2000.0)            P               Q                  
n   0.35154123     Peri.  158.88936     -0.02887518     +0.96359702             
a   1.9883151      Node   108.67028     -0.95259632     +0.05403967             
e   0.6222405      Incl.   16.29357     -0.30286378     -0.26184058             
P   2.80           H   20.36          G   0.15           U   7                  
Residuals in seconds of arc
240121 F51  0.1+  0.2+    240211 F52  0.0   0.1-    240211 F52  0.2+  0.2-
240121 F51  0.2-  0.1+    240211 F52  0.0   0.0     240211 F52  0.1+  0.1-
240121 F51  0.1+  0.3-    240211 F52  0.1-  0.0     240214 J04  0.0   0.1+
240207 F52  0.1-  0.0     240211 F52  0.0   0.0     240214 J04  0.0   0.1-
240207 F52  0.0   0.0     240211 F52  0.0   0.0     240214 J04  0.1-  0.1+
240207 F52  0.1+  0.0     240211 F52  0.0   0.1-

Ephemeris:
2024 CR7                 a,e,i = 1.99, 0.62, 16                  q = 0.7511
Date    TT    R. A. (2000) Decl.     Delta      r    Elong.  Phase     V
2024 01 17    11 11 28.6 +21 14 30   1.1344  1.9483   133.7    21.4    23.1
...
2024 02 01    11 12 05.5 +26 11 02   0.9218  1.8289   147.1    17.0    22.4
...
2024 02 09    11 08 16.2 +29 42 09   0.8276  1.7625   152.5    15.0    22.0
...
2024 02 15    11 02 59.9 +32 42 22   0.7670  1.7114   154.3    14.5    21.8
2024 02 16    11 01 54.1 +33 13 54   0.7577  1.7028   154.4    14.5    21.7
2024 02 17    11 00 44.3 +33 45 46   0.7488  1.6942   154.3    14.6    21.7
...
2024 02 23    10 52 21.0 +37 02 41   0.7002  1.6417   152.3    16.3    21.5
...
2024 03 02    10 37 17.5 +41 29 04   0.6493  1.5702   145.6    20.9    21.4
...
2024 03 17    09 58 51.7 +48 44 18   0.5906  1.4317   127.2    33.6    21.4

A. U. Tomatic                (C) Copyright 2024 MPC           M.P.E.C. 2024-D12





More information about the Iaude mailing list